SCP
0 0 0 0 0 0 0 0 0 0 0 0 0 0 0 0 0 0 0 0 0 0
0 0 0 0 0 0 0 0 0 -0 0 0 0 0 0 0 0 0 0 0 0 0
0 0 0 0 0 0 0 0 0 0 0 0 0 0 0 0 0 0 0 0 0 0
0 0 0 0 0 0 0 0 0 0 0 0 0 0 0 0 0 0 0 0 0 0
0 0 0 0 0 0 0 0 0 0 0 0 0 0 0 0 0 0 0 0 0 0
0 0 0 0 0 0 0 0 0 0 0 0 0 0 0 0 0 0 0 0 0 0
0 0 0 0 0 0 0 0 0 0 0 0 0 0 0 0 0 0 0 0 0 0
0 0 0 0 0 0 0 0 0 0 0 0 0 0 0 0 0 0 0 0 0 0
0 0 0 0 0 0 0 0 0 -0 0 0 0 0 0 0 0 0 0 0 0 0
0 0 0 0 0 0 0 0 0 -0 0 0 0 0 0 0 0 0 0 0 0 0
0 0 0 0 0 0 0 0 0 0 -0 -0 0 0 0 0 0 0 0 0 0 0
0 0 0 0 -0 0 0 0 0 0 0 0 0 0 0 0 0 0 0 0 0 0
0 0 0 0 0 0 0 0 0 0 0 0 0 0 0 0 0 0 0 0 0 0
0 0 0 -0 0 0 0 0 0 0 0 0 0 0 0 -0 0 0 0 0 0 0
Wind_Speed_500mb
89 90 97 95 94 93 94 90 91 102 104 91 78 79 83 90 91 83 94 104 147 138
91 83 79 83 84 90 99 96 85 84 91 86 76 76 77 87 95 78 113 119 120 149
79 81 77 78 85 86 87 88 85 74 75 78 77 80 83 81 88 83 94 98 122 138
72 75 76 78 81 86 86 80 78 79 74 73 78 78 84 87 92 85 92 110 126 132
68 68 68 72 79 80 80 80 81 83 73 68 73 83 86 89 97 86 96 105 108 112
64 65 66 67 69 71 74 81 73 76 75 77 73 83 83 86 92 85 87 105 106 117
61 58 58 57 61 64 66 68 66 71 71 68 67 81 74 89 90 87 82 83 101 90
55 53 53 54 52 51 54 60 64 62 70 69 69 78 67 92 86 82 84 83 101 83
50 47 47 49 46 45 46 49 54 59 61 62 69 79 64 65 74 71 73 89 87 80
47 46 47 41 15 25 33 39 48 55 58 52 58 77 63 71 68 60 67 84 75 73
43 39 37 31 12 6 20 31 40 43 45 54 62 65 58 60 60 62 64 69 68 70
36 33 31 25 14 10 17 24 25 26 35 53 58 57 61 64 62 65 69 62 65 59
33 31 28 25 17 13 14 17 25 31 27 39 51 53 50 54 65 64 59 53 50 46
32 30 25 21 18 13 15 24 25 28 36 48 53 53 44 45 52 53 46 44 51 53
Wind_Direction_500mb
287 278 279 275 272 269 264 264 265 264 261 258 251 244 232 235 238 227 220 218 218 223
287 284 277 271 267 265 262 263 264 261 259 254 243 236 235 230 234 236 232 228 222 228
286 284 277 270 267 263 259 260 261 250 247 248 239 226 227 230 228 235 224 225 221 222
290 284 279 270 266 263 261 257 253 250 242 235 232 221 222 225 225 229 225 227 216 217
293 290 282 274 269 263 259 256 249 247 242 236 230 218 220 220 223 225 224 223 221 225
298 292 287 280 274 266 256 251 249 245 239 234 228 216 218 221 221 224 225 224 225 220
307 302 296 287 277 269 261 250 241 236 232 225 225 212 220 217 217 220 223 226 217 227
315 310 302 293 282 271 259 244 235 227 226 224 219 213 216 213 210 214 219 225 226 227
327 323 319 308 286 269 255 233 226 220 223 220 212 211 213 207 207 212 224 222 219 225
343 341 331 333 279 233 229 214 212 213 218 211 203 204 208 206 207 211 222 221 224 225
358 347 348 359 24 190 195 194 199 206 212 209 196 204 202 196 203 215 223 223 218 221
3 8 13 26 58 114 152 171 182 187 207 193 192 195 200 204 214 219 216 209 216 223
16 28 31 31 48 103 134 164 171 171 185 196 191 190 195 198 207 201 202 206 209 209
34 42 48 50 56 101 133 160 160 166 160 170 180 185 197 203 202 199 189 189 190 174
Wind_Speed_850mb
89 90 97 95 94 93 94 90 91 102 104 91 78 79 83 90 91 83 94 104 147 138
91 83 79 83 84 90 99 96 85 84 91 86 76 76 77 87 95 78 113 119 120 149
79 81 77 78 85 86 87 88 85 74 75 78 77 80 83 81 88 83 94 98 122 138
72 75 76 78 81 86 86 80 78 79 74 73 78 78 84 87 92 85 92 110 126 132
68 68 68 72 79 80 80 80 81 83 73 68 73 83 86 89 97 86 96 105 108 112
64 65 66 67 69 71 74 81 73 76 75 77 73 83 83 86 92 85 87 105 106 117
61 58 58 57 61 64 66 68 66 71 71 68 67 81 74 89 90 87 82 83 101 90
55 53 53 54 52 51 54 60 64 62 70 69 69 78 67 92 86 82 84 83 101 83
50 47 47 49 46 45 46 49 54 59 61 62 69 79 64 65 74 71 73 89 87 80
47 46 47 41 15 25 33 39 48 55 58 52 58 77 63 71 68 60 67 84 75 73
43 39 37 31 12 6 20 31 40 43 45 54 62 65 58 60 60 62 64 69 68 70
36 33 31 25 14 10 17 24 25 26 35 53 58 57 61 64 62 65 69 62 65 59
33 31 28 25 17 13 14 17 25 31 27 39 51 53 50 54 65 64 59 53 50 46
32 30 25 21 18 13 15 24 25 28 36 48 53 53 44 45 52 53 46 44 51 53
Wind_Direction_850mb
287 278 279 275 272 269 264 264 265 264 261 258 251 244 232 235 238 227 220 218 218 223
287 284 277 271 267 265 262 263 264 261 259 254 243 236 235 230 234 236 232 228 222 228
286 284 277 270 267 263 259 260 261 250 247 248 239 226 227 230 228 235 224 225 221 222
290 284 279 270 266 263 261 257 253 250 242 235 232 221 222 225 225 229 225 227 216 217
293 290 282 274 269 263 259 256 249 247 242 236 230 218 220 220 223 225 224 223 221 225
298 292 287 280 274 266 256 251 249 245 239 234 228 216 218 221 221 224 225 224 225 220
307 302 296 287 277 269 261 250 241 236 232 225 225 212 220 217 217 220 223 226 217 227
315 310 302 293 282 271 259 244 235 227 226 224 219 213 216 213 210 214 219 225 226 227
327 323 319 308 286 269 255 233 226 220 223 220 212 211 213 207 207 212 224 222 219 225
343 341 331 333 279 233 229 214 212 213 218 211 203 204 208 206 207 211 222 221 224 225
358 347 348 359 24 190 195 194 199 206 212 209 196 204 202 196 203 215 223 223 218 221
3 8 13 26 58 114 152 171 182 187 207 193 192 195 200 204 214 219 216 209 216 223
16 28 31 31 48 103 134 164 171 171 185 196 191 190 195 198 207 201 202 206 209 209
34 42 48 50 56 101 133 160 160 166 160 170 180 185 197 203 202 199 189 189 190 174